Flag for Honduras Weather past 2 weeks in La Ceiba, Honduras

Now
84 °F

Sunny.


Feels Like: 92 °F
Forecast: 73 / 87 °F
Wind: 2 mph from North

Location: La Ceiba Airport

Current Time: Jul 30, 2014 at 8:19:53 AM

Latest Report: Jul 30, 2014 at 8:00 AM


Visibility: 10 mi

Pressure: 30.01 "Hg

Humidity: 74%

Dew point: 75 °F

Location of La CeibaLocation

Historic Weather in La Ceiba — Graph

°F

La Ceiba temperature yesterday

Maximum temperature yesterday: 90 °F (at 1:00 PM)
Minimum temperature yesterday: 72 °F (at 2:00 AM)
Average temperature yesterday: 81 °F

Past Weeks' High & Low Weather Summary

 TemperatureHumidityPressure
High91 °F (Jul 18, 12:00 PM)100% (Jul 18, 4:00 AM)30.01 "Hg (Jul 18, 4:00 AM)
Low68 °F (Jul 20, 5:00 AM)25% (Jul 22, 5:00 AM)29.86 "Hg (Jul 18, 2:00 PM)
Average81 °F82%29.94 "Hg
* Reported Jul 15 7:00 AM — Jul 30 7:00 AM, La Ceiba, Weather by CustomWeather, © 2014

Note: Actual official high and low records may vary slightly from our data, if they occured in-between our weather recording intervals... More about our weather records

Advertising

La Ceiba weather history for previous 24 hours

 ConditionsComfort  
Time TempWeatherWind HumidityBarometerVisibility
7:00 AM
Jul 30
79 °FPassing clouds.No wind89%29.98 "HgN/A
6:00 AM73 °FScattered clouds.No wind94%29.98 "HgN/A
5:00 AM73 °FPassing clouds.No wind94%29.98 "HgN/A
4:00 AM75 °FPassing clouds.No wind94%N/AN/A
3:00 AM77 °FPassing clouds.3 mph94%29.98 "HgN/A
2:00 AM77 °FPassing clouds.3 mph94%29.98 "HgN/A
1:00 AM81 °FPassing clouds.6 mph89%29.98 "HgN/A
12:00 AM82 °FPassing clouds.8 mph79%30.01 "HgN/A
11:00 PM
Jul 29
82 °FPassing clouds.8 mph79%30.01 "HgN/A
10:00 PM82 °FPassing clouds.15 mph79%29.98 "HgN/A
9:00 PM82 °FPassing clouds.12 mph79%29.98 "HgN/A
8:00 PM82 °FPassing clouds.13 mph79%29.98 "HgN/A
7:00 PM82 °FPassing clouds.14 mph79%29.95 "HgN/A
6:00 PM82 °FScattered showers. Broken clouds.14 mph84%29.92 "Hg5 mi
5:00 PM84 °FBroken clouds.13 mph79%29.95 "Hg5 mi
4:00 PM86 °FScattered showers. Broken clouds.10 mph79%29.95 "Hg5 mi
3:00 PM86 °FScattered showers. Broken clouds.12 mph79%29.95 "Hg5 mi
2:00 PM88 °FBroken clouds.8 mph70%29.95 "HgN/A
1:00 PM90 °FScattered clouds.7 mph67%29.98 "HgN/A
12:00 PM88 °FBroken clouds.6 mph70%29.98 "HgN/A
11:00 AM86 °FPartly sunny.3 mph70%30.01 "HgN/A
10:00 AM84 °FPartly sunny.3 mph74%29.98 "HgN/A
9:00 AM82 °FPartly sunny.No wind74%30.01 "HgN/A
8:00 AM77 °FPartly sunny.No wind83%29.98 "HgN/A
Weather by CustomWeather, © 2014

See weather overviewHow to use our weather pages